Back to catalog

FENGYUN 1C DEB

AliveSSO
NORAD 35152·DEBRIS·🇨🇳 China

Launched May 10, 1999 from Taiyuan Satellite Launch Center

Loading…

Next Passes (next 24 hours)

TLE

AgingSource: Space-Track

Epoch: Sep 9, 2026, 18:40 UTC

1 35152U 99025DMG 26252.77807625  .00000448  00000-0  43764-3 0  9993
2 35152  99.8201  89.2572 0194268  33.9096 327.4298 13.76833505659220

Track FENGYUN 1C DEB in real time with AllMySat

Download on the App Store